Location: Lake of the Woods (North-East)
(49.6672°N, 94.8656°W)
Time: 01:59:46
(UTC-06:00)

Daily predictions for brighter satellites

Satellite Brightness Start Highest point End
(mag) Time Altitude Azimuth Time Altitude Azimuth Time Altitude Azimuth
Cosmos 2297 Rocket 3.9 04:05:23 29° ENE 04:05:23 29° ENE 04:08:37 10° NE
Cosmos 2227 Rocket 3.7 04:18:50 31° NE 04:18:50 31° NE 04:21:51 10° NE
NOSS 3-1 (A) 4.3 04:22:14 54° NNE 04:23:03 56° NE 04:31:01 10° ESE
ATLAS 2AS CENTAUR R/B 4.1 04:28:41 31° N 04:30:56 36° NNE 04:38:10 10° E
ADEOS II 4.1 04:26:43 10° NNE 04:28:19 20° NNE 04:28:19 20° NNE
ADEOS Rocket 4.4 04:29:41 10° N 04:34:18 37° NNW 04:34:18 37° NNW
Cosmos 1725 Rocket 4.2 04:40:49 69° E 04:40:53 69° E 04:47:10 10° NNE
Cosmos 2082 4.3 04:48:32 50° NNE 04:48:32 50° NNE 04:52:42 10° NNE
Cosmos 1603 4.2 04:56:05 49° NNE 04:57:00 55° NE 05:02:32 10° SE
USA 234 3.5 04:53:48 10° E 05:00:14 59° NNE 05:01:29 51° NNW
NOSS 3-1 (C) 3.9 05:01:36 59° NW 05:03:18 88° SW 05:11:32 10° SE
Cosmos 1538 Rocket 4.0 05:13:23 79° SSE 05:13:23 79° SSE 05:18:23 10° SSE
Cosmos 1842 Rocket 4.4 05:15:07 45° NE 05:15:07 45° NE 05:18:22 10° NNE
ATLAS CENTAUR R/B 4.1 05:18:29 11° N 05:18:29 11° N 05:18:48 10° NNE
COSMO-SKYMED 1 3.3 05:12:53 10° SSE 05:16:07 48° SE 05:16:07 48° SE
SL-8 R/B 4.1 05:25:32 52° S 05:25:32 52° S 05:29:44 10° ESE
Cosmos 220 Rocket 4.2 05:26:05 71° ENE 05:26:05 71° ENE 05:30:06 10° NNE
Cosmos 2233 Rocket 3.9 05:21:16 10° S 05:27:32 88° W 05:33:54 10° N
Cosmos 1680 Rocket 4.3 05:25:05 21° N 05:28:28 50° ENE 05:33:38 10° SE
CZ-3 Stage 3 4.5 05:29:57 10° S 05:31:52 12° SSE 05:34:32 10° SE
SL-16 R/B 3.5 05:39:14 24° SSW 05:39:14 24° SSW 05:41:44 10° S
SeaSat 1 2.4 05:32:07 10° NNE 05:36:52 59° NW 05:36:52 59° NW
Cosmos 2346 Rocket 4.3 05:33:41 10° NNW 05:39:45 63° W 05:45:43 10° S
Cosmos 1818 4.4 05:43:12 33° NNW 05:43:12 33° NNW 05:47:50 10° NNE
Coronas F rocket 4.0 05:44:23 16° ENE 05:44:39 17° ENE 05:46:20 10° ESE
Cosmos 2297 Rocket 2.5 05:47:14 44° WNW 05:47:26 44° NW 05:52:52 10° NNE
DMSP B5D1-3 4.4 05:42:40 10° S 05:47:47 77° WSW 05:51:41 18° NNW
Cosmos 968 Rocket 3.4 05:46:56 25° SSW 05:50:05 75° WNW 05:55:24 10° NNE
Cosmos 1703 3.6 05:48:39 21° N 05:51:09 66° ENE 05:55:03 10° SSE
Okean-O 4.3 05:47:40 10° N 05:49:20 21° NNW 05:49:20 21° NNW
Cosmos 773 Rocket 4.0 05:57:23 36° NW 05:59:16 56° WSW 06:04:27 10° S
Cosmos 1626 2.5 05:56:57 15° N 05:59:55 63° ENE 06:03:37 10° SSE
Cosmos 2227 Rocket 3.0 06:00:41 31° NW 06:00:42 31° NW 06:05:43 10° NNE
Meteor 1-28 Rocket 3.1 05:57:33 10° S 06:01:17 61° W 06:01:21 60° W
Cosmos 2058 2.8 06:00:42 51° WNW 06:01:19 58° W 06:05:23 10° S
Cosmos 2112 Rocket 4.1 05:59:25 15° NNW 06:03:53 80° ENE 06:09:14 10° SSE
Cosmos 1271 Rocket 2.5 06:00:34 10° SSW 06:04:22 75° WNW 06:08:09 10° N
SKYMED 2 4.2 06:01:20 10° SSW 06:04:44 36° WSW 06:04:44 36° WSW
NOAA 6 4.1 06:01:48 10° N 06:06:53 55° WNW 06:11:56 10° SW
Meteor 1-11 4.4 06:01:37 10° NNW 06:07:17 53° W 06:12:53 10° S
Meteor 1-16 Rocket 4.0 06:03:29 10° SSW 06:08:49 64° WNW 06:14:07 10° N
Cosmos 1184 Rocket 2.9 06:08:16 26° N 06:10:01 77° ENE 06:13:20 10° SSE
BREEZE-M DEB (TANK) 2.1 06:09:46 60° W 06:10:12 80° SSW 06:12:25 10° ESE
Cosmos 1340 Rocket 3.1 06:10:39 43° W 06:10:39 43° W 06:14:19 10° SSW
ADEOS II 3.7 06:07:21 10° N 06:09:16 17° NNW 06:09:16 17° NNW
Meteor 2-12 Rocket 4.4 06:06:17 10° S 06:12:28 89° WNW 06:18:40 10° N
NOSS 3-1 (A) 4.2 06:09:42 25° WNW 06:14:10 52° WSW 06:22:08 10° SSE
Cosmos 292 Rocket 3.7 06:11:53 24° NW 06:14:42 64° WSW 06:19:26 10° S
Cosmos 1666 Rocket 3.6 06:12:27 10° N 06:16:57 86° E 06:21:26 10° S
Cosmos 2221 2.4 06:13:02 10° SSW 06:17:21 76° W 06:21:42 10° N
Cosmos 1943 3.1 06:13:16 16° NNW 06:18:00 82° WSW 06:23:43 10° SSE
Cosmos 1464 Rocket 3.9 06:14:42 10° SSW 06:21:02 77° W 06:27:19 10° N
ATLAS 2AS CENTAUR R/B 3.2 06:16:07 15° NW 06:23:13 78° NE 06:30:57 10° SE
SMAP 4.3 06:19:28 10° NNE 06:23:56 43° E 06:28:23 10° S
Cosmos 1356 Rocket 3.4 06:20:57 15° NNW 06:24:10 58° W 06:28:14 10° S
Tiangong 2 4.1 06:28:28 10° S 06:29:19 11° SSE 06:30:11 10° SE
Cosmos 1777 Rocket 3.9 06:25:34 10° SW 06:30:45 64° WNW 06:35:57 10° NNE
Helios 1B rocket 3.0 06:27:24 10° SSE 06:31:27 60° ENE 06:35:31 10° N
CSL-04 Debris 4.2 06:26:43 10° NNE 06:32:15 89° WNW 06:37:44 10° SSW
Cosmos 2151 4.3 06:36:01 20° WSW 06:36:01 20° WSW 06:38:23 10° SW
COSMOS 2406 4.4 06:33:25 10° NNW 06:38:52 40° NE 06:44:17 10° ESE
IRS-1A Rocket 4.4 06:36:55 10° NNE 06:42:52 87° ESE 06:48:42 10° SSW
USA 234 3.3 06:36:40 10° SE 06:43:12 69° SW 06:48:50 15° WNW
Meteor 2-1 Rocket 4.4 06:39:34 10° SSW 06:45:05 52° WNW 06:50:45 10° N
Cosmos 2263 Rocket 3.0 06:39:56 10° S 06:45:28 56° ESE 06:51:02 10° NE
SJ-12 3.9 06:43:40 10° NNE 06:47:47 88° WNW 06:51:52 10° SSW
Cosmos 1470 Rocket 3.6 06:45:14 10° N 06:49:35 80° E 06:53:55 10° SSE
Cosmos 1908 3.1 06:47:26 10° SSW 06:51:16 83° WNW 06:55:07 10° N
COSMO-SKYMED 1 4.3 06:51:32 10° WSW 06:53:20 14° W 06:53:20 14° W
CZ-2C R/B 2.2 06:50:16 10° NNE 06:54:54 87° WNW 06:59:29 10° SSW
Cosmos 1805 Rocket 4.4 06:51:50 10° NNW 06:55:38 29° W 06:59:24 10° SSW
CZ-4 R/B 1.3 06:52:12 10° N 06:56:16 74° WNW 07:00:22 10° SSW
ATLAS CENTAUR R/B 3.8 06:56:21 10° N 06:57:21 11° N 06:58:21 10° NNE
IDEFIX/ARIANE 42P 2.6 06:52:13 10° NNE 06:57:32 85° WNW 07:02:48 10° SSW
CSL-04 Rocket 3.8 06:53:01 10° N 06:58:09 50° WNW 07:03:13 10° SW
Ariane Rocket 3.4 06:55:46 10° N 07:00:30 39° WNW 07:05:13 10° SW
Meteor 1-29 2.9 06:59:04 10° SSE 07:02:34 82° WSW 07:06:07 10° NNW
Cosmos 1726 3.4 07:00:53 10° SSE 07:04:24 44° E 07:07:57 10° NNE
Cosmos 2228 Rocket 3.0 07:02:08 10° SSW 07:06:33 78° W 07:11:00 10° N
Iridium 4 Rocket 3.3 07:03:15 10° N 07:07:32 78° E 07:12:03 10° S
Cosmos 1680 Rocket 4.5 07:05:53 10° NW 07:10:20 28° W 07:14:47 10° SSW
Cosmos 1300 3.6 07:07:50 10° S 07:11:34 53° E 07:15:20 10° NNE
AQUARIUS 4.1 07:09:08 10° N 07:13:37 65° WNW 07:18:05 10° SSW
SeaSat 1 4.1 07:10:47 10° N 07:13:42 16° NW 07:16:37 10° WNW
Coronas F rocket 2.9 07:14:38 13° WNW 07:15:28 15° W 07:16:56 10° SW
Meteor 2-2 Rocket 4.4 07:09:51 10° S 07:15:41 86° ESE 07:21:27 10° NNE
Sich 1 4.0 07:12:35 10° NNW 07:16:15 26° W 07:19:52 10° SW
ATLAS CENTAUR R/B 3.6 07:12:52 10° NW 07:17:03 56° NNE 07:29:10 10° ESE
TELKOM 3 3.0 07:14:56 10° WSW 07:17:16 67° SSE 07:19:23 10° E
Cosmos 1634 Rocket 4.1 07:11:07 10° S 07:17:25 87° E 07:23:43 10° N
Alouette 2 Rocket 3.1 07:14:09 10° NNW 07:17:45 86° WSW 07:21:34 10° SSE
Cosmos 1898 Rocket 3.7 07:12:47 10° SSW 07:18:03 79° ESE 07:23:23 10° NNE
Cosmos 1633 Rocket 4.0 07:17:51 10° NNW 07:21:31 27° W 07:25:09 10° SW
Cosmos 2150 Rocket 4.4 07:18:11 10° SSW 07:23:36 74° ESE 07:28:57 10° NNE
PAYLOAD A 4.5 07:20:09 10° N 07:24:47 36° WNW 07:29:14 10° SW
Cosmos 1328 Rocket 3.8 07:25:03 10° SSW 07:29:15 48° WNW 07:33:32 10° N
MSX 3.8 07:25:17 10° NNE 07:31:03 74° WNW 07:36:48 10° SSW
Cosmos 389 Rocket 3.4 07:28:10 10° SW 07:31:27 30° WNW 07:34:44 10° N
Cosmos 2297 Rocket 3.9 07:30:13 10° WNW 07:33:03 14° NNW 07:35:54 10° N
